Location: Helsinki
(60.1699°N, 24.9384°E)
Time: 21:03:19
(UTC+02:00)

Transit 2A Rocket - Pass Details

Date: 25 September 2023
Orbit: 593 x 903 km, 66.7° (Epoch: 29 November)

Event Time Altitude Azimuth Distance (km) Brightness Sun altitude
Rises 15:29:03 0° 184° (S) 3,314 9.2 23.4°
Reaches altitude 10° 15:31:55 10° 172° (S) 2,332 8.3 23.2°
Maximum altitude 15:36:11 25° 118° (ESE) 1,465 6.5 22.9°
Drops below altitude 10° 15:40:12 10° 64° (ENE) 2,175 6.9 22.6°
Sets 15:42:46 0° 52° (NE) 3,043 7.5 22.4°
